Change the Weather History Date:

Friday, January 17, 2014

  Actual Average Record
Temperature  
Mean Temperature 44 °F -  
Max Temperature 47 °F 40 °F 51 °F (2007)
Min Temperature 40 °F 29 °F 15 °F (2013)
Degree Days  
Heating Degree Days 22    
Moisture  
Dew Point 40 °F    
Average Humidity 84    
Maximum Humidity 100    
Minimum Humidity 68    
Precipitation  
Precipitation 0.04 in 0.07 in - ()
Sea Level Pressure  
Sea Level Pressure 29.45 in    
Wind  
Wind Speed 9 mph ()    
Max Wind Speed 15 mph    
Max Gust Speed -    
Visibility 7.4 miles    
Events Rain    
Averages and records for this station are not official NWS values.
T = Trace of Precipitation, MM = Missing Value Source: Averaged Metar Reports

Daily Weather History Graph

Daily Weather History Graph

Search for Another Location

Airport or City:

Trip Planner

Search our weather history database for the weather conditions in past years. The results will help you decide how hot, cold, wet, or windy it might be!

Date:

Astronomy

Jan. 17, 2014 Rise Set
Actual Time 8:38 AM CET 4:49 PM CET
Civil Twilight 7:57 AM CET 5:30 PM CET
Nautical Twilight 7:14 AM CET 6:13 PM CET
Astronomical Twilight 6:33 AM CET 6:54 PM CET
Moon 6:41 PM CET (1/17) 8:39 AM CET (1/17)
Length of Visible Light 9h 32m
Length of Day
8h 11m
Full, 99% of the Moon is Illuminated
Jan 17
Full
Jan 24
Last Quarter
Jan 30
New
Feb 6
First Quarter
Feb 15
Full

Hourly Weather History & Observations

Time (CET) Temp. Windchill Dew Point Humidity Pressure Visibility Wind Dir Wind Speed Gust Speed Precip Events Conditions
12:00 AM 42 °F - 40 °F 90% 29.43 in 8 mi South 8.9 mph - -   Partly Cloudy
12:25 AM 41.0 °F 35.2 °F 39.2 °F 93% 29.42 in 6.2 mi South 9.2 mph - N/A   Unknown
12:55 AM 41.0 °F 35.2 °F 39.2 °F 93% 29.42 in 6.2 mi South 9.2 mph - N/A   Unknown
1:00 AM 41 °F - 39 °F 91% 29.43 in 7 mi South 8.9 mph - -   Partly Cloudy
1:25 AM 41.0 °F 35.2 °F 39.2 °F 93% 29.42 in 6.2 mi South 9.2 mph - N/A   Unknown
1:55 AM 41.0 °F 35.2 °F 39.2 °F 93% 29.42 in 6.2 mi SSE 9.2 mph - N/A   Unknown
2:00 AM 41 °F - 39 °F 91% 29.43 in 10 mi SSE 6.7 mph - -   Overcast
2:25 AM 41.0 °F 35.8 °F 39.2 °F 93% 29.42 in 6.2 mi SSE 8.1 mph - N/A   Unknown
2:55 AM 41.0 °F 35.8 °F 39.2 °F 93% 29.42 in 6.2 mi SSE 8.1 mph - N/A   Mostly Cloudy
3:00 AM 41 °F - 38 °F 87% 29.44 in 16 mi SSE 6.7 mph - -   Scattered Clouds
3:25 AM 41.0 °F 35.8 °F 39.2 °F 93% 29.42 in 6.2 mi SSE 8.1 mph - N/A   Mostly Cloudy
3:55 AM 41.0 °F 35.8 °F 39.2 °F 93% 29.42 in 6.2 mi SSE 8.1 mph - N/A   Mostly Cloudy
4:00 AM 41 °F - 39 °F 89% 29.44 in 19 mi SSE 8.9 mph - -   Scattered Clouds
4:25 AM 41.0 °F 35.8 °F 39.2 °F 93% 29.42 in 6.2 mi SSE 8.1 mph - N/A   Unknown
4:55 AM 41.0 °F 35.8 °F 39.2 °F 93% 29.42 in 6.2 mi SSE 8.1 mph - N/A   Unknown
5:00 AM 41 °F - 39 °F 88% 29.44 in 19 mi SSE 8.9 mph - -   Scattered Clouds
5:25 AM 41.0 °F 35.8 °F 39.2 °F 93% 29.42 in 6.2 mi SSE 8.1 mph - N/A   Unknown
5:55 AM 42.8 °F 37.0 °F 39.2 °F 87% 29.42 in 6.2 mi South 10.4 mph - N/A   Unknown
6:00 AM 42 °F - 39 °F 85% 29.44 in 25 mi South 11.2 mph - -   Scattered Clouds
6:25 AM 42.8 °F 36.6 °F 39.2 °F 87% 29.42 in 6.2 mi South 11.5 mph - N/A   Unknown
6:55 AM 42.8 °F 36.6 °F 39.2 °F 87% 29.42 in 6.2 mi South 11.5 mph - N/A   Mostly Cloudy
7:00 AM 44 °F - 40 °F 81% 29.44 in 25 mi South 11.2 mph - -   Partly Cloudy
7:25 AM 44.6 °F 38.8 °F 41.0 °F 87% 29.42 in 6.2 mi South 11.5 mph - N/A   Overcast
7:55 AM 44.6 °F 38.8 °F 41.0 °F 87% 29.42 in 6.2 mi South 11.5 mph - N/A   Overcast
8:00 AM 45 °F - 40 °F 78% 29.44 in 28 mi South 13.4 mph - -   Overcast
8:25 AM 44.6 °F 38.4 °F 41.0 °F 87% 29.44 in 6.2 mi South 12.7 mph - N/A   Overcast
8:55 AM 44.6 °F 38.8 °F 41.0 °F 87% 29.44 in 6.2 mi South 11.5 mph - N/A   Overcast
9:00 AM 45 °F - 40 °F 78% 29.46 in 28 mi South 11.2 mph - -   Overcast
9:25 AM 44.6 °F 38.8 °F 41.0 °F 87% 29.44 in 6.2 mi South 11.5 mph - N/A   Overcast
9:55 AM 46.4 °F 40.7 °F 41.0 °F 81% 29.44 in 6.2 mi South 12.7 mph - N/A   Overcast
10:00 AM 46 °F - 40 °F 74% 29.47 in 28 mi South 13.4 mph - -   Overcast
10:25 AM 46.4 °F 40.4 °F 39.2 °F 76% 29.44 in 6.2 mi South 13.8 mph - N/A   Overcast
10:55 AM 46.4 °F 40.1 °F 41.0 °F 81% 29.44 in 6.2 mi South 15.0 mph - N/A   Overcast
11:00 AM 46 °F - 40 °F 74% 29.47 in 22 mi SSW 13.4 mph - -   Overcast
11:25 AM 46.4 °F 40.4 °F 41.0 °F 81% 29.44 in 6.2 mi South 13.8 mph - N/A   Overcast
11:55 AM 46.4 °F 40.1 °F 41.0 °F 81% 29.44 in 6.2 mi South 15.0 mph - N/A   Overcast
12:00 PM 47 °F - 41 °F 71% 29.46 in 25 mi South 13.4 mph - -   Overcast
12:25 PM 46.4 °F 40.4 °F 41.0 °F 81% 29.44 in 6.2 mi South 13.8 mph - N/A   Overcast
12:55 PM 48.2 °F - 41.0 °F 76% 29.44 in 6.2 mi South 15.0 mph - N/A   Overcast
1:00 PM 47 °F - 41 °F 71% 29.46 in 22 mi South 13.4 mph - -   Partly Cloudy
1:25 PM 46.4 °F 40.4 °F 41.0 °F 81% 29.44 in 6.2 mi South 13.8 mph - N/A   Overcast
1:55 PM 48.2 °F - 41.0 °F 76% 29.44 in 6.2 mi South 12.7 mph - N/A   Overcast
2:00 PM 47 °F - 40 °F 70% 29.46 in 28 mi South 13.4 mph - -   Overcast
2:25 PM 48.2 °F - 41.0 °F 76% 29.44 in 6.2 mi South 11.5 mph - N/A   Overcast
2:55 PM 48.2 °F - 41.0 °F 76% 29.44 in 6.2 mi South 11.5 mph - N/A   Overcast
3:00 PM 47 °F - 40 °F 71% 29.47 in 28 mi South 11.2 mph - -   Overcast
3:25 PM 46.4 °F 40.7 °F 41.0 °F 81% 29.44 in 6.2 mi South 12.7 mph - N/A   Overcast
3:55 PM 46.4 °F 40.7 °F 41.0 °F 81% 29.44 in 6.2 mi South 12.7 mph - N/A   Overcast
4:00 PM 47 °F - 40 °F 68% 29.47 in 28 mi South 11.2 mph - -   Overcast
4:25 PM 46.4 °F 41.9 °F 41.0 °F 81% 29.47 in 6.2 mi South 9.2 mph - N/A   Overcast
4:55 PM 46.4 °F 42.4 °F 39.2 °F 76% 29.47 in 6.2 mi South 8.1 mph - N/A   Overcast
5:00 PM 46 °F - 40 °F 73% 29.48 in 25 mi SSE 6.7 mph - -   Overcast
5:25 PM 46.4 °F 42.9 °F 41.0 °F 81% 29.47 in 6.2 mi SSE 6.9 mph - N/A   Overcast
5:55 PM 46.4 °F 42.4 °F 41.0 °F 81% 29.47 in 6.2 mi SSE 8.1 mph - N/A   Overcast
6:00 PM 46 °F - 40 °F 74% 29.48 in 25 mi SSE 6.7 mph - -   Overcast
6:25 PM 46.4 °F 42.9 °F 41.0 °F 81% 29.47 in 6.2 mi SE 6.9 mph - N/A   Overcast
6:55 PM 46.4 °F 43.5 °F 41.0 °F 81% 29.47 in 6.2 mi SE 5.8 mph - N/A   Overcast
7:00 PM 46 °F - 41 °F 75% 29.49 in 17 mi SSE 6.7 mph - - Rain Light Drizzle
7:25 PM 44.6 °F 40.7 °F 41.0 °F 87% 29.47 in 6.2 mi SSE 6.9 mph - N/A Rain Light Rain
7:55 PM 44.6 °F 39.7 °F 42.8 °F 93% 29.47 in 6.2 mi South 9.2 mph - N/A Rain Light Rain
8:00 PM 45 °F - 42 °F 85% 29.50 in 9 mi SSE 8.9 mph - - Rain Drizzle
8:25 PM 44.6 °F 39.2 °F 41.0 °F 87% 29.50 in 6.2 mi South 10.4 mph - N/A   Light Drizzle
8:55 PM 44.6 °F 37.8 °F 41.0 °F 87% 29.50 in 6.2 mi SSW 15.0 mph - N/A   Drizzle
9:00 PM 44 °F - 41 °F 84% 29.52 in 19 mi SSW 13.4 mph - - Rain Drizzle
9:25 PM 44.6 °F 38.1 °F 41.0 °F 87% 29.50 in 6.2 mi SSW 13.8 mph - N/A Rain Drizzle
9:55 PM 42.8 °F 37.5 °F 41.0 °F 93% 29.50 in 6.2 mi South 9.2 mph - N/A   Drizzle
10:00 PM 43 °F - 41 °F 90% 29.52 in 22 mi South 11.2 mph - - Rain Light Drizzle
10:25 PM 42.8 °F 37.0 °F 41.0 °F 93% 29.50 in 6.2 mi South 10.4 mph - N/A   Drizzle
10:55 PM 42.8 °F 37.5 °F 41.0 °F 93% 29.50 in 6.2 mi SSE 9.2 mph - N/A   Overcast
11:00 PM 43 °F - 42 °F 92% 29.52 in 22 mi SSE 8.9 mph - - Rain Rain Showers
11:25 PM 42.8 °F 38.0 °F 42.8 °F 100% 29.50 in 6.2 mi SSE 8.1 mph - N/A Rain Drizzle
11:55 PM 42.8 °F 38.6 °F 42.8 °F 100% 29.50 in 6.2 mi SSE 6.9 mph - N/A   Overcast